[[{"header":{"parameterUnit":"m.s-1","parameterCategory":1,"la1":30.2992,"la2":30.254,"lo1":-89.0895,"lo2":-89.0443,"dy":0.0025,"dx":0.0025,"nx":19,"ny":19,"refTime":"2026-05-20T09:00:00:Z","depth":0,"parameterNumber":2,"parameterNumberName":"U-component_of_WINDS"},"data":[0,0,0,-1.5844,-1.5846,-1.5944,-1.5944,-1.6065,-1.6066,0,0,0,0,0,0,0,0,0,0,0,-1.5814,-1.5815,-1.5844,-1.5846,-1.5944,-1.5944,-1.6065,-1.6066,0,0,0,0,0,0,0,0,0,0,0,-1.5814,-1.5815,-1.5816,-1.5847,-1.5944,-1.5944,-1.6064,-1.5992,0,0,0,0,0,0,0,0,0,0,-1.5898,-1.5869,-1.5814,-1.5816,-1.5847,-1.5943,-1.5944,-1.5989,-1.5997,-1.602,0,-1.6041,0,-1.6056,-1.6074,-1.6074,0,0,0,-1.5847,-1.5863,-1.589,-1.5816,-1.5848,-1.5943,-1.59,-1.5993,-1.6002,-1.603,-1.6043,-1.6047,-1.6058,-1.6075,-1.6075,-1.6211,-1.6211,0,0,-1.5841,-1.5831,-1.5884,-1.5896,-1.5882,-1.5897,-1.5903,-1.5999,-1.6011,-1.6043,-1.605,-1.606,-1.6076,-1.6076,-1.621,-1.6211,0,0,0,-1.5826,-1.5827,-1.5852,-1.5891,-1.5909,-1.59,-1.5907,-1.6007,-1.6016,-1.6051,-1.6061,-1.6076,-1.6078,-1.6209,-1.621,-1.6231,0,0,0,-1.5822,-1.5818,-1.585,-1.5844,-1.5907,-1.5959,-1.5912,-1.6009,-1.602,-1.606,-1.6076,-1.6079,-1.6209,-1.621,-1.6229,-1.6242,0,0,0,-1.5808,-1.5816,-1.583,-1.5843,-1.5885,-1.5958,-1.5973,-1.6012,-1.6026,-1.6074,-1.6079,-1.6208,-1.621,-1.6227,-1.6239,-1.6275,0,0,0,-1.5789,-1.5846,-1.583,-1.5897,-1.5884,-1.597,-1.5972,-1.6037,-1.6081,-1.6077,-1.6209,-1.621,-1.6227,-1.6237,-1.6273,-1.6303,-1.6315,0,0,-1.5854,-1.5853,-1.5893,-1.5882,-1.5969,-1.5956,-1.6046,-1.6095,-1.6109,-1.6176,-1.6179,-1.623,-1.6239,-1.6275,-1.6384,-1.6393,0,0,0,-1.591,-1.5939,-1.5964,-1.6007,-1.6047,-1.6082,-1.612,-1.6138,-1.6196,-1.6141,-1.6253,-1.6258,-1.628,-1.6295,-1.6302,-1.6321,-1.6217,-1.6217,-1.6216,-1.5986,-1.6002,-1.607,-1.6098,-1.6139,-1.6178,-1.6212,-1.6243,-1.6246,-1.6272,-1.6292,-1.6357,-1.6374,-1.638,-1.6399,-1.6309,-1.6309,-1.6309,-1.6309,-1.6083,-1.6126,-1.6131,-1.6198,-1.6214,-1.627,-1.631,-1.631,-1.6365,-1.6343,-1.6362,-1.6337,-1.6389,-1.6407,-1.6311,-1.6311,-1.6311,-1.631,-1.631,-1.6134,-1.6158,-1.6181,-1.6244,-1.6291,-1.6317,-1.637,-1.6382,-1.6394,-1.6414,-1.6436,-1.6436,-1.6437,-1.6424,-1.6424,-1.6424,-1.6424,-1.6425,-1.6425,-1.6178,-1.6204,-1.6247,-1.6296,-1.6325,-1.6365,-1.6406,-1.6434,-1.647,-1.6474,-1.6475,-1.6475,-1.6392,-1.637,-1.6428,-1.6428,-1.6427,-1.6427,-1.6427,-1.627,-1.6252,-1.6319,-1.6349,-1.6407,-1.6453,-1.6469,-1.6527,-1.6553,-1.6578,-1.6575,-1.6512,-1.6511,-1.6505,-1.6487,-1.6572,-1.6572,-1.6572,-1.6572,-1.6313,-1.6315,-1.6387,-1.6433,-1.648,-1.6502,-1.6577,-1.6609,-1.6639,-1.6656,-1.6646,-1.6624,-1.6617,-1.662,-1.6611,-1.6595,-1.6705,-1.6706,-1.6706,-1.6371,-1.6378,-1.6439,-1.647,-1.6517,-1.6557,-1.6628,-1.668,-1.6711,-1.6711,-1.667,-1.6664,-1.6628,-1.6616,-1.6615,-1.6601,-1.6572,0,0]},{"header":{"parameterUnit":"m.s-1","parameterCategory":1,"la1":30.2992,"la2":30.254,"lo1":-89.0895,"lo2":-89.0443,"dy":0.0025,"dx":0.0025,"nx":19,"ny":19,"refTime":"2026-05-20T09:00:00:Z","depth":0,"parameterNumber":3,"parameterNumberName":"V-component_of_WINDS"},"data":[0,0,0,1.3138,1.3139,1.3199,1.3199,1.3267,1.3267,0,0,0,0,0,0,0,0,0,0,0,1.3115,1.3116,1.3138,1.3139,1.3199,1.3199,1.3267,1.3267,0,0,0,0,0,0,0,0,0,0,0,1.3115,1.3116,1.3116,1.3139,1.3199,1.3199,1.3266,1.3224,0,0,0,0,0,0,0,0,0,0,1.3168,1.3142,1.3115,1.3116,1.314,1.3199,1.3199,1.3222,1.3227,1.3236,0,1.3244,0,1.3257,1.3271,1.3272,0,0,0,1.3142,1.3138,1.3159,1.3116,1.314,1.3199,1.3173,1.3225,1.323,1.3242,1.3245,1.3247,1.3258,1.3272,1.3272,1.3317,1.3317,0,0,1.3139,1.3123,1.3156,1.3162,1.3153,1.3171,1.3175,1.3228,1.323,1.3245,1.3249,1.3259,1.3272,1.3273,1.3317,1.3317,0,0,0,1.3127,1.3121,1.314,1.3159,1.3171,1.3172,1.3177,1.3227,1.3235,1.325,1.326,1.3272,1.3273,1.3317,1.3317,1.3305,0,0,0,1.3126,1.3114,1.3139,1.3129,1.317,1.32,1.3174,1.3231,1.3238,1.3259,1.3272,1.3274,1.3317,1.3317,1.3306,1.3302,0,0,0,1.3113,1.3112,1.312,1.3128,1.3154,1.3199,1.321,1.3233,1.3244,1.3272,1.3274,1.3317,1.3317,1.3306,1.3302,1.331,0,0,0,1.3095,1.3107,1.3119,1.3137,1.3153,1.3192,1.321,1.324,1.3262,1.3273,1.3317,1.3317,1.3306,1.3303,1.331,1.3314,1.3314,0,0,1.3101,1.3107,1.3119,1.3132,1.3165,1.3184,1.3215,1.325,1.3267,1.3299,1.3301,1.3306,1.3302,1.331,1.3319,1.3319,0,0,0,1.3115,1.3124,1.3136,1.3158,1.3186,1.321,1.3242,1.3255,1.3284,1.328,1.3311,1.3309,1.3315,1.3317,1.3317,1.3323,1.3318,1.3318,1.3317,1.31,1.3123,1.3144,1.3174,1.3195,1.323,1.3249,1.3273,1.3287,1.3294,1.3304,1.3307,1.3309,1.3309,1.3315,1.3308,1.3307,1.3307,1.3307,1.3112,1.3127,1.315,1.3178,1.3202,1.3226,1.326,1.3271,1.3296,1.3301,1.3306,1.3309,1.3308,1.3314,1.3307,1.3307,1.3307,1.3307,1.3307,1.3104,1.3116,1.3133,1.3169,1.3193,1.3224,1.3248,1.3269,1.3288,1.3293,1.3306,1.3306,1.3309,1.3298,1.3298,1.3298,1.3298,1.3298,1.3298,1.3089,1.311,1.3129,1.3162,1.318,1.3205,1.3242,1.326,1.3285,1.3298,1.3298,1.3312,1.3304,1.3302,1.3299,1.3298,1.3298,1.3298,1.3298,1.3092,1.3096,1.3124,1.3143,1.3184,1.3208,1.3235,1.327,1.3288,1.33,1.3314,1.3305,1.3311,1.3312,1.331,1.3309,1.3309,1.3309,1.3309,1.3086,1.3092,1.3128,1.3156,1.3185,1.3213,1.3246,1.3275,1.3305,1.3318,1.3321,1.3321,1.332,1.3327,1.3327,1.3326,1.3329,1.3329,1.3329,1.3089,1.31,1.3123,1.3155,1.319,1.3219,1.3251,1.3282,1.3317,1.333,1.3329,1.3328,1.3327,1.3325,1.3337,1.3337,1.3334,0,0]}]]